Location: アルンシュタイン
(50.0000°N, 10.0000°E)
Time: 19:21:52
(UTC+02:00)

S-56A Canister/Altair - Visible Passes

Search period start: 11 September 2024 00:00
Search period end: 21 September 2024 00:00
Orbit: 637 x 2487 km, 38.9° (Epoch: 10 September)

Date Brightness Start Highest point End Pass type
(mag) Time Alt. Az. Time Alt. Az. Time Alt. Az.
11 Sep 10.2 00:19:40 10° WSW 00:22:47 25° WSW 00:22:47 25° WSW visible
11 Sep 9.3 21:43:52 10° SW 21:50:21 36° SSE 21:53:09 30° SE visible
11 Sep 9.8 23:46:02 10° WSW 23:50:27 32° SW 23:50:27 32° SW visible
12 Sep 9.3 21:10:33 10° SW 21:16:29 32° SSE 21:20:46 22° ESE visible
12 Sep 9.4 23:12:27 10° WSW 23:18:05 39° SSW 23:18:05 39° SSW visible
13 Sep 9.3 20:37:19 10° SSW 20:42:41 28° SSE 20:48:23 15° ESE visible
13 Sep 9.2 22:38:55 10° WSW 22:45:41 41° S 22:45:41 41° S visible
14 Sep 10.6 00:41:53 10° WSW 00:42:59 14° WSW 00:42:59 14° WSW visible
14 Sep 9.4 20:04:09 10° SSW 20:08:57 24° SSE 20:15:18 10° ESE visible
14 Sep 9.1 22:05:26 10° WSW 22:11:54 39° S 22:13:16 37° SSE visible
15 Sep 10.3 00:08:10 10° WSW 00:10:34 20° WSW 00:10:34 20° WSW visible
15 Sep 9.1 21:32:00 10° WSW 21:37:59 37° S 21:40:50 30° SE visible
15 Sep 9.9 23:34:32 10° WSW 23:38:09 26° SW 23:38:09 26° SW visible
16 Sep 9.1 20:58:37 10° SW 21:04:07 34° SSE 21:08:25 21° ESE visible
16 Sep 9.5 23:00:56 10° WSW 23:05:43 32° SSW 23:05:43 32° SSW visible
17 Sep 9.1 20:25:15 10° SW 20:30:19 31° SSE 20:36:00 14° ESE visible
17 Sep 9.3 22:27:22 10° WSW 22:33:18 35° S 22:33:18 35° S visible
18 Sep 9.1 19:51:55 10° SW 19:56:33 28° SSE 20:02:45 10° ESE visible
18 Sep 9.2 21:53:52 10° WSW 21:59:39 34° S 22:00:53 32° SSE visible
18 Sep 10.5 23:57:09 10° WSW 23:58:11 14° WSW 23:58:11 14° WSW visible
19 Sep 9.1 21:20:23 10° WSW 21:25:45 33° S 21:28:29 26° SSE visible
19 Sep 10.2 23:23:26 10° WSW 23:25:47 18° SW 23:25:47 18° SW visible
20 Sep 9.1 20:46:55 10° WSW 20:51:55 31° S 20:56:06 19° SE visible
20 Sep 9.8 22:49:47 10° WSW 22:53:25 22° SW 22:53:25 22° SW visible
